Time,TemperatureF,DewpointF,PressureIn,WindDirection,WindDirectionDegrees,WindSpeedMPH,WindSpeedGustMPH,Humidity,HourlyPrecipIn,Conditions,Clouds,dailyrainin,SoftwareType,DateUTC
2014-08-30 00:43:00,81.0,77.0,30.02,ESE,121,0.0,5.0,87,0.00,,,0.00,,2014-08-30 05:43:00,
2014-08-30 01:22:00,82.0,78.0,30.03,South,182,1.0,8.0,89,0.00,,,0.00,,2014-08-30 06:22:00,
2014-08-30 01:52:00,81.0,78.0,30.02,WSW,248,0.0,3.0,90,0.00,,,0.00,,2014-08-30 06:52:00,
2014-08-30 02:22:00,80.0,76.0,30.01,South,189,0.0,5.0,89,0.00,,,0.00,,2014-08-30 07:22:00,
2014-08-30 02:52:00,80.0,76.0,30.01,SW,214,0.0,4.0,89,0.00,,,0.00,,2014-08-30 07:52:00,
2014-08-30 03:22:00,80.0,77.0,30.01,SW,227,0.0,3.0,90,0.00,,,0.00,,2014-08-30 08:22:00,
2014-08-30 03:42:00,80.0,77.0,30.01,SW,227,0.0,1.0,91,0.00,,,0.00,,2014-08-30 08:42:00,
2014-08-30 04:23:00,78.0,76.0,30.01,SW,227,0.0,0.0,94,0.00,,,0.00,,2014-08-30 09:23:00,
2014-08-30 04:44:00,78.0,76.0,30.01,SW,227,0.0,0.0,94,0.00,,,0.00,,2014-08-30 09:44:00,
2014-08-30 04:53:00,78.0,76.0,30.02,SW,227,0.0,0.0,95,0.00,,,0.00,,2014-08-30 09:53:00,
2014-08-30 05:53:00,77.0,76.0,30.02,SW,227,0.0,0.0,96,0.00,,,0.00,,2014-08-30 10:53:00,
2014-08-30 06:22:00,76.0,75.0,30.03,SW,227,0.0,0.0,96,0.00,,,0.00,,2014-08-30 11:22:00,
2014-08-30 06:43:00,76.0,75.0,30.03,SW,227,0.0,0.0,97,0.00,,,0.00,,2014-08-30 11:43:00,
2014-08-30 07:12:00,76.0,75.0,30.03,SW,227,0.0,0.0,97,0.00,,,0.00,,2014-08-30 12:12:00,
2014-08-30 07:22:00,76.0,75.0,30.04,SW,227,0.0,1.0,97,0.00,,,0.00,,2014-08-30 12:22:00,
2014-08-30 07:43:00,76.0,75.0,30.04,SW,227,0.0,2.0,97,0.00,,,0.00,,2014-08-30 12:43:00,
2014-08-30 08:22:00,78.0,77.0,30.05,ESE,119,0.0,2.0,97,0.00,,,0.00,,2014-08-30 13:22:00,
2014-08-30 08:53:00,82.0,79.0,30.05,ESE,109,0.0,4.0,91,0.00,,,0.00,,2014-08-30 13:53:00,
2014-08-30 09:23:00,86.0,81.0,30.05,ESE,109,0.0,5.0,84,0.00,,,0.00,,2014-08-30 14:23:00,
2014-08-30 09:43:00,85.0,79.0,30.06,South,189,1.0,4.0,83,0.00,,,0.00,,2014-08-30 14:43:00,
2014-08-30 09:52:00,86.0,79.0,30.06,ESE,115,3.0,8.0,80,0.00,,,0.00,,2014-08-30 14:52:00,
2014-08-30 10:44:00,88.0,79.0,30.06,SE,128,3.0,7.0,76,0.00,,,0.00,,2014-08-30 15:44:00,
2014-08-30 10:55:00,89.0,80.0,30.07,ESE,123,2.0,7.0,74,0.00,,,0.00,,2014-08-30 15:55:00,
2014-08-30 11:24:00,90.0,79.0,30.06,WSW,243,3.0,10.0,71,0.00,,,0.00,,2014-08-30 16:24:00,
2014-08-30 11:43:00,92.0,80.0,30.06,SSE,153,3.0,8.0,69,0.00,,,0.00,,2014-08-30 16:43:00,
2014-08-30 11:54:00,92.0,80.0,30.06,SE,144,3.0,8.0,68,0.00,,,0.00,,2014-08-30 16:54:00,
2014-08-30 12:13:00,93.0,80.0,30.06,SE,133,3.0,7.0,66,0.00,,,0.00,,2014-08-30 17:13:00,
2014-08-30 12:24:00,92.0,80.0,30.06,SE,129,2.0,10.0,68,0.00,,,0.00,,2014-08-30 17:24:00,
2014-08-30 12:53:00,93.0,80.0,30.05,ESE,105,2.0,7.0,67,0.00,,,0.00,,2014-08-30 17:53:00,
2014-08-30 13:22:00,92.0,80.0,30.04,ESE,116,2.0,7.0,69,0.00,,,0.00,,2014-08-30 18:22:00,
2014-08-30 13:42:00,91.0,80.0,30.04,ESE,115,4.0,11.0,70,0.00,,,0.00,,2014-08-30 18:42:00,
2014-08-30 14:12:00,92.0,80.0,30.03,South,188,3.0,10.0,68,0.00,,,0.00,,2014-08-30 19:12:00,
2014-08-30 14:43:00,92.0,79.0,30.03,SSE,167,2.0,9.0,66,0.00,,,0.00,,2014-08-30 19:43:00,
2014-08-30 15:23:00,91.0,80.0,30.02,South,184,4.0,12.0,71,0.00,,,0.00,,2014-08-30 20:23:00,
2014-08-30 15:42:00,90.0,80.0,30.02,SW,220,2.0,8.0,72,0.00,,,0.00,,2014-08-30 20:42:00,
2014-08-30 16:22:00,89.0,79.0,30.01,SE,140,1.0,10.0,72,0.00,,,0.00,,2014-08-30 21:22:00,
2014-08-30 17:23:00,88.0,79.0,30.01,SSW,206,1.0,8.0,75,0.00,,,0.00,,2014-08-30 22:23:00,
2014-08-30 17:43:00,88.0,80.0,30.02,SSW,192,1.0,7.0,77,0.00,,,0.00,,2014-08-30 22:43:00,
2014-08-30 17:53:00,87.0,80.0,30.01,South,174,0.0,6.0,79,0.00,,,0.00,,2014-08-30 22:53:00,
2014-08-30 18:23:00,86.0,79.0,30.01,SE,132,0.0,4.0,80,0.00,,,0.00,,2014-08-30 23:23:00,
2014-08-30 18:43:00,86.0,79.0,30.02,SE,144,2.0,6.0,79,0.00,,,0.00,,2014-08-30 23:43:00,
2014-08-30 19:22:00,85.0,78.0,30.03,SSW,200,0.0,3.0,80,0.00,,,0.00,,2014-08-31 00:22:00,
2014-08-30 19:42:00,84.0,78.0,30.03,SSW,210,0.0,4.0,82,0.00,,,0.00,,2014-08-31 00:42:00,
2014-08-30 19:52:00,84.0,78.0,30.03,SSW,211,0.0,5.0,83,0.00,,,0.00,,2014-08-31 00:52:00,
2014-08-30 20:12:00,84.0,79.0,30.03,SSW,209,0.0,3.0,84,0.00,,,0.00,,2014-08-31 01:12:00,
2014-08-30 20:42:00,83.0,78.0,30.03,SSW,209,0.0,2.0,85,0.00,,,0.00,,2014-08-31 01:42:00,
2014-08-30 20:52:00,83.0,78.0,30.03,SSW,209,0.0,1.0,86,0.00,,,0.00,,2014-08-31 01:52:00,
2014-08-30 21:22:00,82.0,78.0,30.04,SSW,209,0.0,1.0,88,0.00,,,0.00,,2014-08-31 02:22:00,